AMOS 17

导读 | 星芒AI

AMOS 17 是一颗由以色列 Spacecom 公司运营的高通量通信卫星,于 2019 年 11 月由 SpaceX 的猎鹰九号火箭发射。该卫星位于 75.5°E 轨位,主要为欧洲、中东、非洲和亚洲部分地区提供宽带通信服务。AMOS 17 搭载了先进的 Ka 波段和 C 波段转发器,支持高清电视、互联网接入和企业通信等多种应用,提升了区域通信能力和网络覆盖。

基本信息
目录编号:
44479
目录名称:
AMOS 17
国际标识:
2019-050A
轨道中心:
EARTH
卫星名称:
AMOS 17
卫星全名:
--
卫星状态:
在轨 (已飞行2282 天)
发射日期:
2019-08-06 UTC
国别 :
以色列 (IL)
星等 :
--
轨道信息
数据来源 国际轨道数据 AOE轨道数据
星历时间 2025-11-04T15:38:39+0800
13小时前
查看轨道信息
2025-11-05T02:00:00+0800
3小时前
查看轨道信息
半长轴 42164.448km 42164.504km
偏心率 0.0001977 0.0001908
轨道倾角 0.035° 0.019°
近地点辐角 168.716° 221.104°
升交点赤经 52.934° 7.427°
平近点角 313.859° 102.747°
近地点 35777.977km 35778.324km
远地点 35794.649km 35794.414km
周期 1436.082分钟 1436.085分钟
每日圈数 1.002728 1.002726
详细信息
使用方式:
暂无
2D轨道图
3D轨道图
轨道高度分析图
轨道倾角分析图
轨道综合分析图
查看轨道综合分析图